ONEWEB-0420 (50495 NORAD) Tracking and Keplerian Element Data

This shows tracking and keplerian element data for the satellite.

Feedback or suggestion? Click here.




ElementValue
Catalog50495
NameONEWEB-0420
Epoch Orbit130
Epoch Day140.58334491
Epoch Year2022
RAAN305.0611
Inclination87.2094
Eccentricity0.0003653
Argument of Perigee139.4608
Mean Anonmoly16.7453
Mean Motion14.92504317
Decay Rate-0.00059114
L11 50495U 21132AC 22140.58334491 -.00059114 00000+0 -58199-2 0 9993
L22 50495 87.2094 305.0611 0003653 139.4608 16.7453 14.92504317 1305

Live tracking and technical data element details for ONEWEB-0420 (NORAD 50495). ONEWEB-0420 can be tracked NOW for your location showing map with azimuth and elevation plus other details from your city location.

Track the satellite on the map from your city or location and see movement details for azimuth, elevation, latitude, longitude, range, height, and movement on the map or in text.







IsCatalogInMostPopularTable: catalog: 50495, numindb: 21
Update: records affected: 1



GetName: 50495 ONEWEB-0420

Hit Count: updated at: Sun, 22 May 2022 04:04:21 GMT